Location: Mentone
(34.5413°N, 85.5351°W)
Time: 13:16:14
(UTC-06:00)

Cosmos 2026 Rocket - Visible Passes

Search period start: 28 February 2015 00:00
Search period end: 10 March 2015 01:00
Orbit: 941 x 1001 km, 82.9° (Epoch: 27 February)

Date Brightness Start Highest point End Pass type
(mag) Time Alt. Az. Time Alt. Az. Time Alt. Az.
28 Feb 5.4 03:14:14 31° NNE 03:14:14 31° NNE 03:17:24 10° NNE visible
28 Feb 5.7 04:58:49 14° NW 04:58:49 14° NW 05:00:29 10° NW visible
01 Mar 6.8 01:53:55 10° NE 01:53:55 10° NE 01:53:56 10° NE visible
01 Mar 5.3 03:38:30 28° N 03:38:30 28° N 03:41:25 10° N visible
02 Mar 6.4 02:18:07 16° NE 02:18:07 16° NE 02:19:29 10° NNE visible
02 Mar 5.5 04:02:42 21° NNW 04:02:42 21° NNW 04:05:02 10° NNW visible
03 Mar 6.1 02:42:17 20° NNE 02:42:17 20° NNE 02:44:07 10° NNE visible
03 Mar 5.9 04:26:53 14° NW 04:26:53 14° NW 04:28:04 10° NNW visible
04 Mar 5.9 03:06:25 21° N 03:06:25 21° N 03:08:18 10° N visible
05 Mar 5.9 03:30:31 18° NNW 03:30:31 18° NNW 03:32:05 10° N visible
06 Mar 6.5 02:10:00 14° NNE 02:10:00 14° NNE 02:10:46 10° NNE visible
06 Mar 6.0 03:54:35 13° NNW 03:54:35 13° NNW 03:55:24 10° NNW visible
07 Mar 6.3 02:34:02 16° N 02:34:02 16° N 02:35:06 10° N visible
08 Mar 6.2 03:58:03 15° N 03:58:03 15° N 03:59:03 10° N visible
09 Mar 6.2 04:22:03 12° NNW 04:22:03 12° NNW 04:22:35 10° NNW visible
